Location: Eexterzandvoort
(53.0303°N, 6.7884°E)
Time: 20:29:17
(UTC+00:00)

Cosmos 1743 - Pass Details

Date: 19 May 2025
Orbit: 432 x 442 km, 82.5° (Epoch: 15 June)

Event Time Altitude Azimuth Distance (km) Brightness Sun altitude
Rises 20:13:20 0° 347° (NNW) 2,460 7.2 -5.6°
Reaches altitude 10° 20:15:25 10° 346° (NNW) 1,582 6.2 -5.8°
Maximum altitude 20:18:52 75° 261° (W) 467 2.6 -6.2°
Drops below altitude 10° 20:22:15 10° 176° (S) 1,562 4.7 -6.6°
Enters shadow 20:23:33 - 175° (S) 2,108 5.3 -6.7°
